Showing default

PACE, 40022

Orbit data source: Space-Track

PACE, 40022 is a Taiwanese payload satellite in SSO that was launched on Thu, 19 Jun 2014 UTC via a DNEPR launch vehicle from the Orenburg, Russia (OREN). Payload-class satellites include a variety of spacecraft equipped with specific instruments for various scientific and technological missions. These include communications satellites like Starlink; space stations such as the ISS; scientific satellites like the Hubble; Earth observation satellites from companies like Planet Labs, Umbra, and HawkEye 360; GPS; miniature CubeSats for education and research; and military/defense satellites.

Loading next visibility...
Identifier
40022, 2014-033N
Orbit
SSO
Country
Flag of TWTW / TWN
Related business
Manufacturer
NCKU
Mission
Non-operational Commercial Technology
Bus & Motor
CUBESAT 2U, Unknown motor
Mass
2 kg wet, 2 kg dry
Launch date (UTC)
2014-06-19 (12 years ago)
Launch vehicle
DNEPR
Launch site
Orenburg, Russia (OREN)
Object type
Payload
Rocket body
Debris
Shape & HBR
Box, 0.1 m
Radar Cross Section
0.057 m², Small (<0.1 m²)

Expand to show TLE details & history
Last TLE update: 17 hours ago

TLE from 17 hours ago
0 PACE
1 40022U 14033N   26123.94745351  .00006146  00000-0  37822-3 0  9993
2 40022  98.1247 126.1115 0006636  22.6811 337.4708 15.10403568646358
Epoch: 2026-05-03T22:44Z
TLE epoch observation values (Epoch: 2026-05-03T22:44:19.983Z)
Latitude
-0.00009°
Longitude
-76.81544°
Altitude
533.786 km
Speed
7.598 km/s
True Right ascension
08h 24m 26s
True Declination
0° 00' 00"
Sunlit
Object was in daylight at epoch
Visualization orbit readout
Latitude
Unknown
Longitude
Unknown
Altitude
Unknown
Speed
Unknown
Apparent Right ascension
Unknown
Apparent Declination
Unknown
Sunlit
N/A
Visualization observer readout
Local Sidereal Time
23:16:00
Azimuth
Unknown
Elevation
Unknown
Doppler factor
Unknown
Orbital elements
Apogee altitude
536.565 km
Perigee altitude
527.393 km
Semi-major axis
6,910.116 km
Eccentricity
0.00066
Inclination
98.1247°
RAAN
126.1115°
Arg. of periapsis
22.6811°
True anomaly
337.44164°
Mean anomaly
337.4708°
Eccentric anomaly
337.45622°
Mean motion
3.77846 °/min
Orbital period
95.28 mins
BSTAR
0.00037822
Loading maneuver chart data...
Computing Atmospheric mass density...
Loading historical data...
Loading historical data...
Loading historical data...
Loading historical data...
Loading historical data...
Loading historical data...
Loading historical data...

Documentation

Showing up to 5 results
|